| time (UTC) | temp C | wind direction | speed KPH | gust KPH | rain 1hr cm | rain 24hr cm | rain mn cm | humidity % | barometer mb |
| 20260504193039 | 20 | 202 | 4.8 | 17.7 | 0.00 | 0.00 | 0.00 | 39 | 1004.8 |
| 20260504192545 | 20 | 235 | 8.0 | 17.7 | 0.00 | 0.00 | 0.00 | 37 | 1004.7 |
| 20260504192033 | 20 | 268 | 4.8 | 17.7 | 0.00 | 0.00 | 0.00 | 37 | 1004.9 |
| 20260504191534 | 20 | 158 | 4.8 | 16.1 | 0.00 | 0.00 | 0.00 | 40 | 1004.8 |
| 20260504191026 | 19 | 265 | 4.8 | 19.3 | 0.00 | 0.00 | 0.00 | 39 | 1004.9 |
| 20260504190551 | 19 | 309 | 6.4 | 24.1 | 0.00 | 0.00 | 0.00 | 43 | 1005.0 |
| 20260504190030 | 18 | 215 | 6.4 | 24.1 | 0.00 | 0.00 | 0.00 | 39 | 1004.9 |
| 20260504185547 | 19 | 355 | 6.4 | 24.1 | 0.00 | 0.00 | 0.00 | 41 | 1005.1 |
| 20260504185030 | 20 | 199 | 9.7 | 24.1 | 0.00 | 0.00 | 0.00 | 36 | 1005.0 |
| 20260504184526 | 20 | 242 | 6.4 | 19.3 | 0.00 | 0.00 | 0.00 | 39 | 1005.1 |
| 20260504184042 | 19 | 223 | 6.4 | 19.3 | 0.00 | 0.00 | 0.00 | 42 | 1005.2 |
| 20260504183537 | 19 | 261 | 8.0 | 19.3 | 0.00 | 0.00 | 0.00 | 46 | 1005.1 |
| 20260504183041 | 18 | 227 | 4.8 | 11.3 | 0.00 | 0.00 | 0.00 | 40 | 1005.1 |
| 20260504182613 | 18 | 261 | 3.2 | 17.7 | 0.00 | 0.00 | 0.00 | 45 | 1005.2 |
| 20260504182031 | 18 | 227 | 4.8 | 16.1 | 0.00 | 0.00 | 0.00 | 44 | 1005.0 |
| 20260504181529 | 18 | 233 | 4.8 | 17.7 | 0.00 | 0.00 | 0.00 | 38 | 1005.2 |
| 20260504181054 | 18 | 48 | 4.8 | 14.5 | 0.00 | 0.00 | 0.00 | 47 | 1005.3 |
| 20260504180535 | 18 | 175 | 4.8 | 14.5 | 0.00 | 0.00 | 0.00 | 44 | 1005.3 |
| 20260504180048 | 17 | 275 | 4.8 | 14.5 | 0.00 | 0.00 | 0.00 | 46 | 1005.3 |
| 20260504175530 | 17 | 319 | 4.8 | 14.5 | 0.00 | 0.00 | 0.00 | 43 | 1005.3 |
| 20260504175034 | 17 | 269 | 3.2 | 19.3 | 0.00 | 0.00 | 0.00 | 43 | 1005.3 |
| 20260504174530 | 17 | 17 | 4.8 | 19.3 | 0.00 | 0.00 | 0.00 | 46 | 1005.3 |
| 20260504174053 | 17 | 256 | 3.2 | 14.5 | 0.00 | 0.00 | 0.00 | 40 | 1005.3 |
| 20260504173528 | 17 | 154 | 6.4 | 17.7 | 0.00 | 0.00 | 0.00 | 41 | 1005.5 |
| 20260504173053 | 17 | 183 | 4.8 | 12.9 | 0.00 | 0.00 | 0.00 | 43 | 1005.3 |
| 20260504172551 | 17 | 160 | 4.8 | 16.1 | 0.00 | 0.00 | 0.00 | 43 | 1005.5 |
| 20260504172038 | 17 | 342 | 3.2 | 16.1 | 0.00 | 0.00 | 0.00 | 44 | 1005.5 |
| 20260504171552 | 17 | 264 | 6.4 | 16.1 | 0.00 | 0.00 | 0.00 | 42 | 1005.5 |
| 20260504171102 | 17 | 291 | 4.8 | 11.3 | 0.00 | 0.00 | 0.00 | 38 | 1005.7 |
| 20260504170558 | 17 | 121 | 4.8 | 11.3 | 0.00 | 0.00 | 0.00 | 44 | 1005.5 |
| 20260504151034 | 17 | 252 | 6.4 | 22.5 | 0.00 | 0.00 | 0.00 | 42 | 1006.3 |
| 20260504150544 | 17 | 35 | 9.7 | 27.4 | 0.00 | 0.00 | 0.00 | 41 | 1006.2 |
| 20260504150104 | 17 | 267 | 9.7 | 27.4 | 0.00 | 0.00 | 0.00 | 43 | 1006.2 |
| 20260504141036 | 15 | 98 | 8.0 | 20.9 | 0.00 | 0.00 | 0.00 | 43 | 1006.7 |
| 20260504140526 | 15 | 186 | 9.7 | 16.1 | 0.00 | 0.00 | 0.00 | 43 | 1006.9 |
| 20260504130526 | 13 | 169 | 3.2 | 12.9 | 0.00 | 0.00 | 0.00 | 53 | 1007.6 |
| 20260504110530 | 5 | 192 | 0.0 | 4.8 | 0.00 | 0.00 | 0.00 | 80 | 1008.4 |
| 20260504100551 | 3 | 113 | 0.0 | 0.0 | 0.00 | 0.00 | 0.00 | 84 | 1008.2 |
| 20260504081524 | 3 | 134 | 0.0 | 4.8 | 0.00 | 0.03 | 0.00 | 77 | 1008.2 |
| 20260504081032 | 3 | 94 | 3.2 | 4.8 | 0.00 | 0.03 | 0.00 | 76 | 1008.1 |
| 20260504080549 | 3 | 111 | 3.2 | 6.4 | 0.00 | 0.03 | 0.00 | 77 | 1008.2 |
| 20260504050524 | 1 | 360 | 0.0 | 0.0 | 0.00 | 0.05 | 0.00 | 83 | 1008.3 |
| 20260504045554 | 1 | 360 | 0.0 | 0.0 | 0.00 | 0.05 | 0.05 | 82 | 1008.2 |
| 20260504045033 | 1 | 360 | 0.0 | 0.0 | 0.00 | 0.05 | 0.05 | 82 | 1008.3 |
| 20260504044538 | 2 | 360 | 0.0 | 0.0 | 0.00 | 0.05 | 0.05 | 82 | 1008.3 |
| 20260504044054 | 1 | 360 | 0.0 | 0.0 | 0.00 | 0.05 | 0.05 | 82 | 1008.3 |
| 20260504043552 | 1 | 360 | 0.0 | 1.6 | 0.00 | 0.05 | 0.05 | 82 | 1008.3 |
| 20260504043024 | 1 | 360 | 0.0 | 3.2 | 0.00 | 0.05 | 0.05 | 82 | 1008.3 |
| 20260504042547 | 1 | 360 | 0.0 | 3.2 | 0.00 | 0.05 | 0.05 | 82 | 1008.4 |
| 20260504042027 | 1 | 360 | 0.0 | 8.0 | 0.00 | 0.05 | 0.05 | 82 | 1008.3 |
| 20260504041547 | 1 | 360 | 1.6 | 8.0 | 0.00 | 0.05 | 0.05 | 81 | 1008.3 |
| 20260504041032 | 2 | 360 | 1.6 | 4.8 | 0.00 | 0.05 | 0.05 | 79 | 1008.3 |
| 20260504040530 | 2 | 360 | 1.6 | 4.8 | 0.00 | 0.05 | 0.05 | 79 | 1008.2 |
| 20260504040037 | 2 | 360 | 0.0 | 0.0 | 0.00 | 0.05 | 0.05 | 78 | 1008.2 |
| 20260504035530 | 2 | 360 | 0.0 | 0.0 | 0.00 | 0.05 | 0.05 | 78 | 1008.2 |
| 20260504035041 | 2 | 360 | 0.0 | 0.0 | 0.00 | 0.05 | 0.05 | 81 | 1008.1 |
| 20260504034548 | 2 | 360 | 0.0 | 0.0 | 0.00 | 0.05 | 0.05 | 81 | 1008.1 |
| 20260504034028 | 1 | 360 | 0.0 | 3.2 | 0.00 | 0.05 | 0.05 | 83 | 1008.1 |
| 20260504033555 | 1 | 360 | 1.6 | 3.2 | 0.00 | 0.05 | 0.05 | 83 | 1008.2 |
| 20260504033029 | 1 | 360 | 0.0 | 0.0 | 0.00 | 0.05 | 0.05 | 83 | 1008.2 |
| 20260504032523 | 1 | 360 | 0.0 | 0.0 | 0.00 | 0.05 | 0.05 | 81 | 1008.1 |
| 20260504032035 | 2 | 360 | 0.0 | 0.0 | 0.00 | 0.05 | 0.05 | 81 | 1008.1 |
| 20260504031536 | 2 | 360 | 0.0 | 0.0 | 0.00 | 0.05 | 0.05 | 79 | 1008.1 |
| 20260504031025 | 2 | 360 | 0.0 | 1.6 | 0.00 | 0.05 | 0.05 | 80 | 1008.0 |
| 20260504030539 | 2 | 360 | 0.0 | 4.8 | 0.00 | 0.05 | 0.05 | 81 | 1007.9 |
| 20260504030034 | 2 | 360 | 1.6 | 4.8 | 0.00 | 0.05 | 0.05 | 80 | 1008.0 |
| 20260504025544 | 2 | 360 | 0.0 | 0.0 | 0.00 | 0.15 | 0.05 | 82 | 1008.0 |
| 20260504025022 | 2 | 360 | 0.0 | 0.0 | 0.00 | 0.15 | 0.05 | 79 | 1008.0 |
| 20260504024541 | 2 | 360 | 0.0 | 0.0 | 0.00 | 0.15 | 0.05 | 80 | 1008.1 |
| 20260504024044 | 2 | 360 | 0.0 | 0.0 | 0.00 | 0.15 | 0.05 | 80 | 1008.1 |
| 20260504023531 | 2 | 360 | 0.0 | 3.2 | 0.00 | 0.15 | 0.05 | 77 | 1008.2 |
| 20260504023040 | 2 | 172 | 0.0 | 3.2 | 0.00 | 0.15 | 0.05 | 76 | 1008.2 |
| 20260504022533 | 2 | 178 | 0.0 | 3.2 | 0.00 | 0.15 | 0.05 | 81 | 1008.2 |
| 20260504022032 | 2 | 178 | 1.6 | 3.2 | 0.00 | 0.15 | 0.05 | 78 | 1008.2 |
| 20260504021554 | 2 | 168 | 1.6 | 4.8 | 0.00 | 0.15 | 0.05 | 77 | 1008.2 |
| 20260504021037 | 3 | 167 | 1.6 | 4.8 | 0.00 | 0.15 | 0.05 | 79 | 1008.2 |
| 20260504020538 | 3 | 173 | 1.6 | 4.8 | 0.00 | 0.15 | 0.05 | 77 | 1008.1 |
| 20260504020058 | 3 | 171 | 3.2 | 4.8 | 0.00 | 0.15 | 0.05 | 80 | 1008.2 |
| 20260504015547 | 3 | 181 | 0.0 | 0.0 | 0.00 | 0.15 | 0.05 | 79 | 1008.1 |
| 20260504015052 | 3 | 181 | 0.0 | 0.0 | 0.00 | 0.15 | 0.05 | 79 | 1008.1 |
| 20260504014552 | 3 | 181 | 0.0 | 0.0 | 0.00 | 0.15 | 0.05 | 79 | 1008.1 |
| 20260504014032 | 3 | 181 | 0.0 | 0.0 | 0.00 | 0.15 | 0.05 | 73 | 1008.0 |
| 20260504013555 | 3 | 181 | 0.0 | 0.0 | 0.00 | 0.15 | 0.05 | 78 | 1008.1 |
| 20260504013054 | 3 | 181 | 0.0 | 0.0 | 0.00 | 0.15 | 0.05 | 78 | 1008.1 |
| 20260504012532 | 3 | 181 | 0.0 | 0.0 | 0.00 | 0.15 | 0.05 | 74 | 1008.0 |
| 20260504012032 | 3 | 181 | 0.0 | 0.0 | 0.00 | 0.15 | 0.05 | 74 | 1007.9 |
| 20260504011528 | 4 | 181 | 0.0 | 0.0 | 0.00 | 0.15 | 0.05 | 75 | 1007.9 |
| 20260504011023 | 4 | 181 | 0.0 | 0.0 | 0.00 | 0.15 | 0.05 | 71 | 1007.8 |
| 20260504010034 | 4 | 171 | 0.0 | 3.2 | 0.00 | 0.15 | 0.05 | 77 | 1007.7 |
| 20260504005532 | 4 | 215 | 1.6 | 3.2 | 0.00 | 0.15 | 0.05 | 73 | 1007.8 |
| 20260504005044 | 4 | 215 | 1.6 | 4.8 | 0.00 | 0.15 | 0.05 | 72 | 1007.8 |
| 20260504004604 | 4 | 215 | 1.6 | 4.8 | 0.00 | 0.15 | 0.05 | 74 | 1007.6 |
| 20260504004033 | 5 | 192 | 1.6 | 8.0 | 0.00 | 0.15 | 0.05 | 74 | 1007.6 |
| 20260504003550 | 5 | 219 | 3.2 | 8.0 | 0.00 | 0.15 | 0.05 | 71 | 1007.6 |
| 20260504003036 | 5 | 278 | 1.6 | 4.8 | 0.00 | 0.15 | 0.05 | 70 | 1007.4 |
| 20260504002523 | 5 | 205 | 1.6 | 8.0 | 0.00 | 0.15 | 0.05 | 70 | 1007.4 |
| 20260504002029 | 5 | 267 | 1.6 | 8.0 | 0.00 | 0.15 | 0.05 | 69 | 1007.4 |
| 20260504001525 | 5 | 198 | 1.6 | 6.4 | 0.00 | 0.15 | 0.05 | 66 | 1007.3 |
| 20260504001039 | 6 | 325 | 1.6 | 6.4 | 0.00 | 0.15 | 0.05 | 65 | 1007.2 |
| 20260504000525 | 6 | 178 | 1.6 | 8.0 | 0.00 | 0.15 | 0.05 | 67 | 1007.1 |
| 20260504000038 | 5 | 178 | 3.2 | 8.0 | 0.00 | 0.15 | 0.05 | 70 | 1007.1 |
| 20260503235527 | 6 | 57 | 1.6 | 12.9 | 0.00 | 0.15 | 0.05 | 64 | 1007.1 |
| 20260503235032 | 6 | 301 | 3.2 | 12.9 | 0.00 | 0.15 | 0.05 | 66 | 1006.9 |
| 20260503234530 | 6 | 300 | 3.2 | 12.9 | 0.00 | 0.15 | 0.05 | 61 | 1006.9 |
| 20260503234024 | 6 | 194 | 1.6 | 17.7 | 0.00 | 0.15 | 0.05 | 65 | 1006.9 |
| 20260503233532 | 6 | 286 | 4.8 | 17.7 | 0.00 | 0.15 | 0.05 | 56 | 1006.8 |
| 20260503233041 | 6 | 238 | 3.2 | 9.7 | 0.00 | 0.15 | 0.05 | 60 | 1006.8 |
| 20260503232550 | 7 | 323 | 1.6 | 11.3 | 0.00 | 0.15 | 0.05 | 57 | 1006.7 |
| 20260503232034 | 7 | 346 | 3.2 | 9.7 | 0.00 | 0.15 | 0.05 | 63 | 1006.7 |
| 20260503231533 | 7 | 360 | 3.2 | 9.7 | 0.00 | 0.15 | 0.05 | 62 | 1006.8 |
| 20260503231044 | 8 | 355 | 4.8 | 14.5 | 0.00 | 0.15 | 0.05 | 53 | 1006.8 |
| 20260503230527 | 7 | 287 | 6.4 | 24.1 | 0.00 | 0.15 | 0.05 | 55 | 1006.8 |
| 20260503230041 | 7 | 227 | 6.4 | 19.3 | 0.00 | 0.15 | 0.05 | 55 | 1006.7 |
| 20260503225526 | 8 | 328 | 3.2 | 22.5 | 0.00 | 0.20 | 0.05 | 53 | 1006.7 |
| 20260503225041 | 8 | 311 | 8.0 | 22.5 | 0.00 | 0.20 | 0.05 | 47 | 1006.6 |
| 20260503224546 | 8 | 316 | 4.8 | 19.3 | 0.00 | 0.20 | 0.05 | 51 | 1006.6 |
| 20260503224033 | 8 | 271 | 8.0 | 19.3 | 0.00 | 0.20 | 0.05 | 55 | 1006.6 |
| 20260503223534 | 8 | 250 | 6.4 | 17.7 | 0.00 | 0.20 | 0.05 | 56 | 1006.5 |
| 20260503223041 | 8 | 276 | 6.4 | 19.3 | 0.00 | 0.20 | 0.05 | 56 | 1006.4 |
| 20260503222540 | 8 | 331 | 4.8 | 19.3 | 0.00 | 0.20 | 0.05 | 57 | 1006.4 |
| 20260503222059 | 8 | 296 | 6.4 | 19.3 | 0.00 | 0.20 | 0.05 | 50 | 1006.4 |
| 20260503221522 | 8 | 311 | 8.0 | 17.7 | 0.00 | 0.20 | 0.05 | 48 | 1006.4 |
| 20260503221032 | 8 | 290 | 4.8 | 24.1 | 0.00 | 0.20 | 0.05 | 50 | 1006.3 |
| 20260503220534 | 8 | 326 | 8.0 | 24.1 | 0.00 | 0.20 | 0.05 | 47 | 1006.3 |
| 20260503220033 | 8 | 296 | 8.0 | 25.7 | 0.00 | 0.20 | 0.05 | 46 | 1006.2 |
| 20260503215529 | 8 | 294 | 11.3 | 32.2 | 0.00 | 0.51 | 0.05 | 47 | 1006.2 |
| 20260503215033 | 8 | 13 | 6.4 | 24.1 | 0.00 | 0.51 | 0.05 | 48 | 1006.1 |
| 20260503214531 | 8 | 17 | 6.4 | 19.3 | 0.00 | 0.51 | 0.05 | 50 | 1006.1 |
| 20260503214035 | 8 | 296 | 6.4 | 27.4 | 0.00 | 0.51 | 0.05 | 47 | 1006.1 |
| 20260503213541 | 8 | 336 | 11.3 | 29.0 | 0.00 | 0.51 | 0.05 | 51 | 1006.1 |
| 20260503213033 | 8 | 61 | 11.3 | 29.0 | 0.00 | 0.51 | 0.05 | 45 | 1006.0 |
| 20260503212608 | 8 | 5 | 8.0 | 19.3 | 0.00 | 0.51 | 0.05 | 51 | 1006.0 |
| 20260503212038 | 8 | 348 | 3.2 | 29.0 | 0.00 | 0.51 | 0.05 | 47 | 1005.9 |
| 20260503211533 | 8 | 355 | 8.0 | 29.0 | 0.00 | 0.51 | 0.05 | 48 | 1006.0 |
| 20260503211053 | 8 | 196 | 6.4 | 24.1 | 0.00 | 0.51 | 0.05 | 49 | 1006.1 |
| 20260503210553 | 8 | 17 | 9.7 | 20.9 | 0.00 | 0.51 | 0.05 | 47 | 1005.9 |
| 20260503210057 | 8 | 319 | 6.4 | 20.9 | 0.00 | 0.51 | 0.05 | 56 | 1005.9 |
| 20260503205540 | 9 | 231 | 4.8 | 25.7 | 0.00 | 0.51 | 0.05 | 49 | 1005.8 |
| 20260503205044 | 9 | 360 | 9.7 | 25.7 | 0.00 | 0.51 | 0.05 | 43 | 1005.7 |
| 20260503204525 | 8 | 216 | 4.8 | 38.6 | 0.00 | 0.51 | 0.05 | 50 | 1005.7 |
| 20260503204100 | 8 | 344 | 12.9 | 38.6 | 0.00 | 0.51 | 0.05 | 44 | 1005.6 |
| 20260503203546 | 9 | 337 | 11.3 | 30.6 | 0.00 | 0.51 | 0.05 | 45 | 1005.6 |
| 20260503203023 | 9 | 333 | 4.8 | 16.1 | 0.00 | 0.51 | 0.05 | 51 | 1005.6 |
| 20260503202527 | 9 | 216 | 4.8 | 25.7 | 0.00 | 0.51 | 0.05 | 46 | 1005.5 |
| 20260503202027 | 8 | 251 | 6.4 | 32.2 | 0.00 | 0.51 | 0.05 | 49 | 1005.5 |
| 20260503201525 | 9 | 348 | 8.0 | 32.2 | 0.00 | 0.51 | 0.05 | 51 | 1005.5 |
| 20260503201032 | 10 | 347 | 9.7 | 24.1 | 0.00 | 0.51 | 0.05 | 44 | 1005.5 |
| 20260503200555 | 10 | 263 | 11.3 | 32.2 | 0.00 | 0.51 | 0.05 | 46 | 1005.5 |
| 20260503200031 | 8 | 187 | 4.8 | 32.2 | 0.00 | 0.51 | 0.05 | 51 | 1005.6 |
| 20260503195536 | 8 | 19 | 6.4 | 30.6 | 0.00 | 0.56 | 0.05 | 52 | 1005.6 |
| 20260503195040 | 8 | 251 | 6.4 | 30.6 | 0.00 | 0.56 | 0.05 | 54 | 1005.7 |
| 20260503194549 | 8 | 303 | 9.7 | 25.7 | 0.00 | 0.56 | 0.05 | 48 | 1005.6 |
| 20260503194041 | 9 | 355 | 8.0 | 25.7 | 0.00 | 0.56 | 0.05 | 45 | 1005.5 |
| 20260503193523 | 9 | 360 | 6.4 | 25.7 | 0.00 | 0.56 | 0.05 | 50 | 1005.5 |